Hourly Weather Krainykovo

Today, 25 October, Sunday

Time Temperature Precipitation Wind Pressure Humidity
00:00 +13°C° 0 mm 0 mps 743 mmHg 89%
01:00 +13°C° 0 mm 0 mps 743 mmHg 89%
02:00 +12°C° 0 mm 0 mps 743 mmHg 85%
03:00 +13°C° 0 mm 1 mps 743 mmHg 90%
04:00 +13°C° 0 mm 1 mps 742 mmHg 93%
05:00 +12°C° 0.1 mm 1 mps 742 mmHg 96%
06:00 +11°C° 1.7 mm 0 mps 742 mmHg 100%
07:00 +12°C° 7.3 mm 1 mps 742 mmHg 100%
08:00 +11°C° 0.8 mm 0 mps 742 mmHg 100%
09:00 +13°C° 0.6 mm 2 mps 743 mmHg 99%
10:00 +13°C° 0.6 mm 5 mps 742 mmHg 97%
11:00 +13°C° 0.4 mm 5 mps 742 mmHg 97%
12:00 +15°C° 0.1 mm 4 mps 742 mmHg 90%
13:00 +17°C° 0 mm 3 mps 742 mmHg 87%
14:00 +18°C° 0 mm 3 mps 742 mmHg 84%
15:00 +18°C° 0 mm 2 mps 741 mmHg 88%
16:00 +18°C° 0 mm 3 mps 741 mmHg 86%
17:00 +17°C° 0 mm 3 mps 741 mmHg 89%
18:00 +16°C° 0 mm 2 mps 741 mmHg 92%
19:00 +14°C° 0 mm 3 mps 741 mmHg 94%
20:00 +14°C° 0.1 mm 3 mps 742 mmHg 94%
21:00 +14°C° 0 mm 4 mps 742 mmHg 94%
22:00 +13°C° 0 mm 5 mps 742 mmHg 96%
23:00 +13°C° 0 mm 4 mps 742 mmHg 96%

Tomorrow, 26 October, Monday

Time Temperature Precipitation Wind Pressure Humidity
00:00 +13°C° 0 mm 4 mps 742 mmHg 96%
01:00 +13°C° 0 mm 3 mps 742 mmHg 96%
02:00 +14°C° 0 mm 2 mps 742 mmHg 96%
03:00 +14°C° 0 mm 2 mps 742 mmHg 97%
04:00 +14°C° 0 mm 2 mps 741 mmHg 97%
05:00 +14°C° 0 mm 2 mps 741 mmHg 96%
06:00 +14°C° 0 mm 1 mps 741 mmHg 96%
07:00 +14°C° 0 mm 1 mps 741 mmHg 96%
08:00 +14°C° 0 mm 1 mps 741 mmHg 96%
09:00 +14°C° 0 mm 1 mps 741 mmHg 96%
10:00 +15°C° 0 mm 1 mps 741 mmHg 95%
11:00 +15°C° 0 mm 1 mps 741 mmHg 92%
12:00 +16°C° 0 mm 1 mps 741 mmHg 93%
13:00 +16°C° 0 mm 1 mps 741 mmHg 92%
14:00 +16°C° 0 mm 1 mps 741 mmHg 93%
15:00 +16°C° 0 mm 1 mps 741 mmHg 92%
16:00 +16°C° 0 mm 1 mps 741 mmHg 92%
17:00 +14°C° 0 mm 0 mps 741 mmHg 95%
18:00 +14°C° 0 mm 1 mps 741 mmHg 97%
19:00 +14°C° 0 mm 1 mps 741 mmHg 98%
20:00 +13°C° 0 mm 0 mps 741 mmHg 97%
21:00 +14°C° 0 mm 1 mps 742 mmHg 96%
22:00 +12°C° 0 mm 0 mps 742 mmHg 97%
23:00 +12°C° 0 mm 0 mps 742 mmHg 99%

Day after tomorrow, 27 October, Tuesday

Time Temperature Precipitation Wind Pressure Humidity
00:00 +13°C° 0 mm 1 mps 742 mmHg 99%
01:00 +12°C° 0 mm 1 mps 741 mmHg 98%
02:00 +11°C° 0 mm 0 mps 742 mmHg 99%
03:00 +11°C° 0 mm 0 mps 742 mmHg 100%
04:00 +10°C° 0 mm 0 mps 741 mmHg 100%
05:00 +10°C° 0 mm 0 mps 741 mmHg 100%
06:00 +10°C° 0 mm 0 mps 741 mmHg 100%
07:00 +9°C° 0 mm 0 mps 742 mmHg 100%
08:00 +10°C° 0 mm 1 mps 742 mmHg 100%
09:00 +11°C° 0 mm 1 mps 742 mmHg 100%
10:00 +11°C° 0 mm 1 mps 742 mmHg 100%
11:00 +12°C° 0 mm 1 mps 742 mmHg 98%
12:00 +13°C° 0 mm 0 mps 742 mmHg 96%
13:00 +14°C° 0 mm 0 mps 742 mmHg 95%
14:00 +15°C° 0 mm 0 mps 742 mmHg 92%
15:00 +16°C° 0 mm 0 mps 741 mmHg 91%
16:00 +15°C° 0 mm 0 mps 741 mmHg 91%
17:00 +16°C° 0 mm 1 mps 741 mmHg 95%
18:00 +15°C° 0 mm 0 mps 741 mmHg 96%
19:00 +15°C° 0 mm 1 mps 741 mmHg 96%
20:00 +14°C° 0 mm 1 mps 741 mmHg 96%
21:00 +13°C° 0 mm 1 mps 741 mmHg 96%
22:00 +13°C° 0 mm 1 mps 741 mmHg 96%
23:00 +13°C° 0 mm 2 mps 741 mmHg 97%

28 October, Wednesday

Time Temperature Precipitation Wind Pressure Humidity
00:00 +12°C° 0 mm 2 mps 741 mmHg 97%
01:00 +12°C° 0 mm 1 mps 741 mmHg 96%
02:00 +12°C° 0 mm 1 mps 741 mmHg 95%
03:00 +12°C° 0 mm 1 mps 741 mmHg 96%
04:00 +11°C° 0 mm 0 mps 741 mmHg 96%
05:00 +12°C° 0 mm 1 mps 741 mmHg 95%
06:00 +11°C° 0 mm 1 mps 741 mmHg 94%
07:00 +11°C° 0 mm 1 mps 741 mmHg 93%
08:00 +11°C° 0 mm 1 mps 741 mmHg 92%
09:00 +12°C° 0 mm 1 mps 742 mmHg 94%
10:00 +12°C° 0 mm 0 mps 742 mmHg 94%
11:00 +13°C° 0 mm 0 mps 742 mmHg 92%
12:00 +14°C° 0 mm 0 mps 742 mmHg 92%
13:00 +15°C° 0 mm 0 mps 742 mmHg 90%
14:00 +15°C° 0 mm 0 mps 742 mmHg 87%
15:00 +16°C° 0 mm 0 mps 742 mmHg 85%
16:00 +15°C° 0 mm 0 mps 742 mmHg 90%
17:00 +16°C° 0 mm 1 mps 742 mmHg 96%
18:00 +15°C° 0 mm 1 mps 742 mmHg 97%
19:00 +14°C° 0 mm 1 mps 743 mmHg 97%
20:00 +14°C° 0 mm 1 mps 743 mmHg 98%
21:00 +13°C° 0 mm 1 mps 743 mmHg 99%
22:00 +13°C° 0 mm 1 mps 743 mmHg 100%
23:00 +13°C° 0 mm 1 mps 744 mmHg 100%

29 October, Thursday

Time Temperature Precipitation Wind Pressure Humidity
00:00 +13°C° 0 mm 1 mps 744 mmHg 100%
01:00 +13°C° 0 mm 1 mps 743 mmHg 100%
02:00 +13°C° 0 mm 1 mps 744 mmHg 100%
03:00 +12°C° 0 mm 1 mps 744 mmHg 100%
04:00 +12°C° 0 mm 1 mps 744 mmHg 100%
05:00 +12°C° 0 mm 2 mps 744 mmHg 100%
06:00 +11°C° 0 mm 1 mps 744 mmHg 100%
07:00 +11°C° 0 mm 1 mps 745 mmHg 100%
08:00 +10°C° 0 mm 1 mps 745 mmHg 100%
09:00 +10°C° 0 mm 1 mps 745 mmHg 100%
10:00 +9°C° 0 mm 2 mps 746 mmHg 100%
11:00 +10°C° 0 mm 2 mps 746 mmHg 99%
12:00 +9°C° 0 mm 2 mps 746 mmHg 99%
13:00 +9°C° 0 mm 2 mps 746 mmHg 98%
14:00 +9°C° 0 mm 2 mps 746 mmHg 98%
15:00 +10°C° 0 mm 2 mps 747 mmHg 97%
16:00 +9°C° 0 mm 2 mps 747 mmHg 97%
17:00 +9°C° 0 mm 2 mps 747 mmHg 98%
18:00 +10°C° 0 mm 1 mps 747 mmHg 99%
19:00 +9°C° 0 mm 0 mps 748 mmHg 99%
20:00 +10°C° 0 mm 1 mps 748 mmHg 99%
21:00 +10°C° 0 mm 1 mps 748 mmHg 99%
22:00 +10°C° 0 mm 1 mps 748 mmHg 99%
23:00 +9°C° 1.7 mm 2 mps 748 mmHg 100%

30 October, Friday

Time Temperature Precipitation Wind Pressure Humidity
00:00 +9°C° 0.6 mm 0 mps 748 mmHg 100%
01:00 +9°C° 0 mm 0 mps 748 mmHg 100%
02:00 +9°C° 0 mm 0 mps 748 mmHg 100%
03:00 +10°C° 0 mm 1 mps 749 mmHg 100%
04:00 +10°C° 0 mm 1 mps 749 mmHg 100%
05:00 +8°C° 0 mm 2 mps 749 mmHg 100%
06:00 +8°C° 0 mm 2 mps 749 mmHg 100%
07:00 +9°C° 0 mm 1 mps 749 mmHg 100%
08:00 +8°C° 0 mm 2 mps 749 mmHg 100%
09:00 +8°C° 0 mm 2 mps 749 mmHg 100%
10:00 +8°C° 0 mm 2 mps 750 mmHg 100%
11:00 +8°C° 0 mm 2 mps 750 mmHg 98%
12:00 +9°C° 0 mm 2 mps 750 mmHg 97%
13:00 +9°C° 0 mm 2 mps 749 mmHg 96%
14:00 +9°C° 0 mm 3 mps 749 mmHg 95%
15:00 +10°C° 0 mm 3 mps 748 mmHg 95%
16:00 +10°C° 0.5 mm 3 mps 748 mmHg 99%
17:00 +10°C° 1.5 mm 3 mps 747 mmHg 99%
18:00 +8°C° 0.4 mm 4 mps 747 mmHg 100%
19:00 +8°C° 0.7 mm 4 mps 746 mmHg 100%
20:00 +8°C° 1.1 mm 5 mps 746 mmHg 100%
21:00 +8°C° 1.3 mm 5 mps 745 mmHg 100%
22:00 +8°C° 0.6 mm 5 mps 745 mmHg 100%
23:00 +9°C° 0.1 mm 5 mps 745 mmHg 100%
Show more